Skip Page Navigation
NASA JPL Caltech
NASA Logo - Jet Propulsion Laboratory + View the NASA Portal
+ Center for Near-Earth Object Studies
JPL Home Earth Solar System Stars & Galaxies Technology
JPL Solar System Dynamics
BODIES ORBITS EPHEMERIDES TOOLS PHYSICAL DATA DISCOVERY FAQ SITE MAP
IMPORTANT: The SSD Announcement email list is now available. Major changes are coming in the near future, including possible hostname and/or URL changes. To be notified of such changes, subscribe to this email list.

Please visit this page for more details.


JPL Small-Body Database Browser
Search: [ help ]  
376465 (2012 JC13)
Classification: Main-belt Asteroid          SPK-ID: 2376465
Ephemeris | Orbit Diagram | Orbital Elements | Mission Design | Physical Parameters | Discovery Circumstances ]

[ show orbit diagram ]
Orbital Elements at Epoch 2459000.5 (2020-May-31.0) TDB
Reference: JPL 12 (heliocentric ecliptic J2000)
 Element Value Uncertainty (1-sigma)   Units 
e .08851311168965113 5.0859e-08  
a 2.721968701701585 4.0365e-08 au
q 2.481038781992138 1.4032e-07 au
i 6.98416061084297 7.5375e-06 deg
node 62.89572182093129 6.019e-05 deg
peri 225.3965376669791 7.8012e-05 deg
M 240.4296459392415 5.2431e-05 deg
tp 2459545.308822908534
(2021-Nov-26.80882291)
0.00024295 TDB
period 1640.299368415435
4.49
3.6487e-05
9.99e-08
d
yr
n .2194721323021467 4.8819e-09 deg/d
Q 2.962898621411032 4.3938e-08 au
  Orbit Determination Parameters
   # obs. used (total)      126  
   data-arc span      6615 days (18.11 yr)  
   first obs. used      2000-11-18  
   last obs. used      2018-12-29  
   planetary ephem.      DE431  
   SB-pert. ephem.      SB431-N16  
   condition code      0  
   norm. resid. RMS      .5461  
   source      ORB  
   producer      Otto Matic  
   solution date      2019-Jul-14 14:42:20  

Additional Information
 Earth MOID = 1.47065 au 
 Jupiter MOID = 2.15733 au 
 T_jup = 3.342 
[ show covariance matrix ]

Ephemeris | Orbit Diagram | Orbital Elements | Mission Design | Physical Parameters | Discovery Circumstances ]

Physical Parameter Table
Parameter Symbol Value Units Sigma Reference Notes
absolute magnitude H 16.8   n/a MPO418907  

376465 (2012 JC13)          Discovered 2007-Mar-11 by Spacewatch at Kitt Peak
Reference: Last Updated: 2013-10-21

Alternate Designations
 2012 JC13 = 2009 UX106 
Ephemeris | Orbit Diagram | Orbital Elements | Mission Design | Physical Parameters | Discovery Circumstances ]
ABOUT SSD CREDITS/AWARDS PRIVACY/COPYRIGHT GLOSSARY LINKS
FirstGov 2020-Feb-23 15:30 UT
(server date/time)  
NASA Home Page
Site Manager:   Ryan S. Park
Webmaster  Alan B. Chamberlin